STARLINK-36529, 67457

Orbit data source: Space-Track

STARLINK-36529, 67457 is a payload satellite owned by SpaceX/Seattle (US) in LEO that was launched on Wed, 14 Jan 2026 UTC via an FALCON 9 launch vehicle from the Air Force Eastern Test Range (AFETR). Payload-class satellites include a variety of spacecraft equipped with specific instruments for various scientific and technological missions. These include communications satellites like Starlink; space stations such as the ISS; scientific satellites like the Hubble; Earth observation satellites from companies like Planet Labs, Umbra, and HawkEye 360; GPS; miniature CubeSats for education and research; and military/defense satellites.

Loading next visibility...
Identifier
67457, 2026-008N
Orbit
LEO
Country
Flag of USUS
Related business
Manufacturer
SpaceX/Seattle
Mission
Operational Commercial Communications
Bus & Motor
STARLINK V2MO, Unknown motor
Mass
575 kg wet, ~530 kg dry
Launch date (UTC)
2026-01-14 (5 months ago)
Launch vehicle
FALCON 9
Launch site
Air Force Eastern Test Range (AFETR)
Object type
Payload
Rocket body
Debris
Shape & HBR
Box + 2 Pan, 17.7 m
Radar Cross Section
36.964 m², Large (>1 m²)

Expand to show TLE details & history
Last TLE update: 1 day ago

TLE from 1 day ago
0 STARLINK-36529
1 67457U 26008N   26170.52021304  .00019941  00000-0  73164-3 0  9996
2 67457  42.9996 350.3395 0000504 163.2242 196.8627 15.27604538 25149
Epoch: 2026-06-19T12:29Z
TLE epoch observation values (Epoch: 2026-06-19T12:29:06.406Z)
Latitude
0.00002°
Longitude
-104.68518°
Altitude
483.082 km
Speed
7.625 km/s
True Right ascension
23h 21m 21s
True Declination
0° 00' 00"
Sunlit
Object was in daylight at epoch
Visualization orbit readout
Latitude
Unknown
Longitude
Unknown
Altitude
Unknown
Speed
Unknown
Apparent Right ascension
Unknown
Apparent Declination
Unknown
Sunlit
N/A
Visualization observer readout
Local Sidereal Time
07:21:51
Azimuth
Unknown
Elevation
Unknown
Doppler factor
Unknown
Orbital elements
Apogee altitude
485.267 km
Perigee altitude
484.575 km
Semi-major axis
6,863.058 km
Eccentricity
0.00005
Inclination
42.9996°
RAAN
350.3395°
Arg. of periapsis
163.2242°
True anomaly
196.86102°
Mean anomaly
196.8627°
Eccentric anomaly
196.86186°
Mean motion
3.81739 °/min
Orbital period
94.31 mins
BSTAR
0.00073164
Loading maneuver chart data...
Computing Atmospheric mass density...
Loading historical data...
Loading historical data...
Loading historical data...
Loading historical data...
Loading historical data...
Loading historical data...
Loading historical data...

Documentation

Showing up to 5 results
|